Weather History for KINF - February, 2013

Change the Weather History Date:

Friday, February 15, 2013

  Actual Average (KGNV) Record (KGNV)
Temperature  
Mean Temperature 57 °F 58 °F  
Max Temperature 68 °F 70 °F 85 °F (1932)
Min Temperature 46 °F 45 °F 16 °F (1899)
Degree Days  
Heating Degree Days 8 8  
Month to date heating degree days 137  
Since 1 July heating degree days 939  
Cooling Degree Days 0 1  
Month to date cooling degree days 11  
Year to date cooling degree days 23  
Growing Degree Days 7 (Base 50)    
Moisture  
Dew Point 45 °F    
Average Humidity 75    
Maximum Humidity 100    
Minimum Humidity 28    
Precipitation  
Precipitation 0.00 in 0.11 in 2.63 in (1969)
Month to date precipitation 1.66  
Year to date precipitation 4.97  
Snow  
Snow 0.00 in 0.00 in 0.00 in ()
Month to date snowfall 0.0  
Since 1 July snowfall 0.0  
Snow Depth -    
Sea Level Pressure  
Sea Level Pressure 30.05 in    
Wind  
Wind Speed 4 mph (NNE)    
Max Wind Speed 8 mph    
Max Gust Speed -    
Visibility 10 miles    
Events      
T = Trace of Precipitation, MM = Missing Value Source: NWS Daily Summary

Daily Weather History Graph

Daily Weather History Graph

Search for Another Location

Airport or City:

Trip Planner

Search our weather history database for the weather conditions in past years. The results will help you decide how hot, cold, wet, or windy it might be!

Date:

Astronomy

Feb. 15, 2013 Rise Set
Actual Time 7:07 AM EST 6:19 PM EST
Civil Twilight 6:43 AM EST 6:43 PM EST
Nautical Twilight 6:15 AM EST 7:11 PM EST
Astronomical Twilight 5:48 AM EST 7:39 PM EST
Moon 10:14 AM EST (2/15) 11:45 PM EST (2/15)
Length of Visible Light 12h 00m
Length of Day
11h 12m
Waxing Crescent, 30% of the Moon is Illuminated
Feb 15
Waxing Crescent
Feb 17
First Quarter
Feb 25
Full
Mar 4
Last Quarter
Mar 11
New

Hourly Weather History & Observations

Time (EST) Temp. Windchill Dew Point Humidity Pressure Visibility Wind Dir Wind Speed Gust Speed Precip Events Conditions
12:15 AM 51.8 °F - 51.8 °F 100% 30.04 in 10.0 mi ENE 3.5 mph - N/A   Overcast
12:35 AM 51.8 °F - 51.8 °F 100% 30.04 in 10.0 mi Calm Calm - N/A   Overcast
12:55 AM 51.8 °F - 51.8 °F 100% 30.04 in 10.0 mi North 5.8 mph - N/A   Overcast
1:15 AM 51.8 °F - 51.8 °F 100% 30.05 in 10.0 mi North 5.8 mph - N/A   Overcast
1:35 AM 51.8 °F - 51.8 °F 100% 30.05 in 10.0 mi North 4.6 mph - N/A   Overcast
1:55 AM 51.8 °F - 51.8 °F 100% 30.06 in 10.0 mi North 4.6 mph - N/A   Overcast
2:15 AM 51.8 °F - 50.0 °F 94% 30.07 in 10.0 mi North 5.8 mph - N/A   Overcast
2:35 AM 51.8 °F - 50.0 °F 94% 30.05 in 10.0 mi NNE 5.8 mph - N/A   Overcast
2:55 AM 51.8 °F - 50.0 °F 94% 30.05 in 10.0 mi North 4.6 mph - N/A   Overcast
3:15 AM 51.8 °F - 50.0 °F 94% 30.04 in 10.0 mi North 3.5 mph - N/A   Overcast
3:35 AM 51.8 °F - 50.0 °F 94% 30.04 in 10.0 mi North 5.8 mph - N/A   Overcast
3:55 AM 50.0 °F - 50.0 °F 100% 30.06 in 10.0 mi North 6.9 mph - N/A   Overcast
4:15 AM 50.0 °F - 50.0 °F 100% 30.06 in 10.0 mi North 4.6 mph - N/A   Overcast
4:35 AM 50.0 °F - 50.0 °F 100% 30.04 in 10.0 mi North 4.6 mph - N/A   Overcast
4:55 AM 50.0 °F - 48.2 °F 94% 30.05 in 10.0 mi North 6.9 mph - N/A   Overcast
5:15 AM 50.0 °F - 48.2 °F 94% 30.05 in 10.0 mi NNE 8.1 mph - N/A   Overcast
5:35 AM 50.0 °F - 48.2 °F 94% 30.06 in 10.0 mi North 5.8 mph - N/A   Overcast
5:55 AM 50.0 °F - 46.4 °F 87% 30.07 in 10.0 mi NE 4.6 mph - N/A   Overcast
6:15 AM 50.0 °F - 46.4 °F 87% 30.07 in 10.0 mi NNE 4.6 mph - N/A   Overcast
6:35 AM 48.2 °F - 46.4 °F 93% 30.08 in 10.0 mi NE 5.8 mph - N/A   Overcast
6:55 AM 46.4 °F 43.5 °F 44.6 °F 93% 30.08 in 10.0 mi NNE 5.8 mph - N/A   Overcast
7:15 AM 46.4 °F 45.2 °F 44.6 °F 93% 30.09 in 10.0 mi NNE 3.5 mph - N/A   Overcast
7:35 AM 46.4 °F 44.3 °F 44.6 °F 93% 30.10 in 10.0 mi NNE 4.6 mph - N/A   Mostly Cloudy
7:55 AM 46.4 °F 45.2 °F 44.6 °F 93% 30.10 in 10.0 mi North 3.5 mph - N/A   Clear
8:15 AM 46.4 °F 43.5 °F 44.6 °F 93% 30.10 in 10.0 mi NNE 5.8 mph - N/A   Clear
8:35 AM 48.2 °F - 44.6 °F 87% 30.11 in 10.0 mi North 6.9 mph - N/A   Clear
8:55 AM 50.0 °F - 44.6 °F 82% 30.11 in 10.0 mi NE 6.9 mph - N/A   Clear
9:15 AM 51.8 °F - 44.6 °F 76% 30.12 in 10.0 mi NNE 8.1 mph - N/A   Clear
9:35 AM 51.8 °F - 44.6 °F 76% 30.12 in 10.0 mi NE 5.8 mph - N/A   Clear
9:55 AM 53.6 °F - 44.6 °F 72% 30.12 in 10.0 mi NNE 5.8 mph - N/A   Clear
10:15 AM 53.6 °F - 46.4 °F 77% 30.12 in 10.0 mi North 3.5 mph - N/A   Clear
10:35 AM 55.4 °F - 46.4 °F 72% 30.11 in 10.0 mi Calm Calm - N/A   Clear
10:55 AM 55.4 °F - 46.4 °F 72% 30.11 in 10.0 mi North 5.8 mph - N/A   Clear
11:15 AM 57.2 °F - 46.4 °F 67% 30.11 in 10.0 mi North 3.5 mph - N/A   Clear
11:35 AM 59.0 °F - 46.4 °F 63% 30.11 in 10.0 mi NNE 3.5 mph - N/A   Clear
11:55 AM 60.8 °F - 46.4 °F 59% 30.09 in 10.0 mi Calm Calm - N/A   Clear
12:15 PM 60.8 °F - 46.4 °F 59% 30.09 in 10.0 mi Calm Calm - N/A   Clear
12:55 PM 62.6 °F - 46.4 °F 55% 30.07 in 10.0 mi Calm Calm - N/A   Clear
1:15 PM 64.4 °F - 46.4 °F 52% 30.05 in 10.0 mi Calm Calm - N/A   Clear
1:35 PM 64.4 °F - 44.6 °F 49% 30.04 in 10.0 mi NE 5.8 mph - N/A   Clear
1:55 PM 64.4 °F - 41.0 °F 42% 30.03 in 10.0 mi NNW 3.5 mph - N/A   Clear
2:15 PM 64.4 °F - 42.8 °F 45% 30.02 in 10.0 mi East 3.5 mph - N/A   Clear
2:35 PM 68.0 °F - 42.8 °F 40% 30.01 in 10.0 mi North 6.9 mph - N/A   Clear
2:55 PM 68.0 °F - 39.2 °F 35% 30.00 in 10.0 mi North 6.9 mph - N/A   Clear
3:15 PM 68.0 °F - 39.2 °F 35% 30.00 in 10.0 mi NE 5.8 mph - N/A   Clear
3:35 PM 68.0 °F - 35.6 °F 30% 30.00 in 10.0 mi NNE 5.8 mph - N/A   Clear
3:55 PM 68.0 °F - 35.6 °F 30% 30.00 in 10.0 mi Calm Calm - N/A   Clear
4:15 PM 68.0 °F - 33.8 °F 28% 30.00 in 10.0 mi Calm Calm - N/A   Clear
4:35 PM 68.0 °F - 35.6 °F 30% 30.00 in 10.0 mi Calm Calm - N/A   Clear
4:55 PM 68.0 °F - 37.4 °F 33% 30.00 in 10.0 mi North 3.5 mph - N/A   Clear
5:15 PM 68.0 °F - 37.4 °F 33% 29.99 in 10.0 mi NNE 3.5 mph - N/A   Clear
5:35 PM 64.4 °F - 39.2 °F 40% 29.99 in 10.0 mi Calm Calm - N/A   Clear
5:55 PM 62.6 °F - 41.0 °F 45% 29.98 in 10.0 mi Calm Calm - N/A   Clear
6:15 PM 60.8 °F - 42.8 °F 52% 29.98 in 10.0 mi Calm Calm - N/A   Clear
6:35 PM 59.0 °F - 42.8 °F 55% 29.98 in 10.0 mi Calm Calm - N/A   Clear
6:55 PM 57.2 °F - 44.6 °F 63% 29.99 in 10.0 mi Calm Calm - N/A   Clear
7:15 PM 55.4 °F - 44.6 °F 67% 29.99 in 10.0 mi Calm Calm - N/A   Clear
7:35 PM 53.6 °F - 44.6 °F 72% 30.00 in 10.0 mi Calm Calm - N/A   Clear
7:55 PM 53.6 °F - 46.4 °F 77% 30.00 in 10.0 mi Calm Calm - N/A   Clear
8:15 PM 53.6 °F - 46.4 °F 77% 30.00 in 10.0 mi Calm Calm - N/A   Clear
8:35 PM 51.8 °F - 46.4 °F 82% 30.01 in 10.0 mi Calm Calm - N/A   Clear
8:55 PM 50.0 °F - 46.4 °F 87% 30.02 in 10.0 mi Calm Calm - N/A   Clear
9:15 PM 48.2 °F - 46.4 °F 93% 30.02 in 10.0 mi Calm Calm - N/A   Clear
9:35 PM 48.2 °F - 46.4 °F 93% 30.03 in 10.0 mi Calm Calm - N/A   Clear
9:55 PM 46.4 °F - 46.4 °F 100% 30.02 in 10.0 mi Calm Calm - N/A   Clear
10:15 PM 46.4 °F - 46.4 °F 100% 30.03 in 10.0 mi Calm Calm - N/A   Clear
10:35 PM 48.2 °F - 46.4 °F 93% 30.03 in 10.0 mi Calm Calm - N/A   Clear
10:55 PM 48.2 °F - 46.4 °F 93% 30.03 in 10.0 mi Calm Calm - N/A   Clear
11:15 PM 46.4 °F - 44.6 °F 93% 30.03 in 10.0 mi Calm Calm - N/A   Clear
11:35 PM 46.4 °F - 46.4 °F 100% 30.03 in 10.0 mi Calm Calm - N/A   Clear
11:55 PM 46.4 °F - 44.6 °F 93% 30.02 in 10.0 mi Calm Calm - N/A   Clear